EA4LT-13 Weather Reports


Display with metric or nautical units.
time (UTC)temp
F
wind
direction
speed
MPH
gust
MPH
rain 1hr
in
rain 24hr
in
rain mn
in
humidity
%
barometer
mb
20260507023200 54 292 4.0 8.0 0.00 0.00 0.00 71 1007.2
20260507021658 54 315 5.0 8.0 0.00 0.00 0.00 72 1007.2
20260507020158 54 292 4.0 6.0 0.00 0.00 0.00 72 1007.2
20260507014658 54 292 5.0 9.0 0.00 0.00 0.00 72 1007.4
20260507013158 53 315 3.0 8.0 0.00 0.00 0.00 75 1007.3
20260507011658 54 315 6.0 10.0 0.00 0.00 0.00 72 1007.5
20260507010159 54 292 5.0 8.0 0.00 0.00 0.00 72 1007.6
20260507004659 54 315 5.0 9.0 0.00 0.00 0.00 72 1007.8
20260507003158 55 315 6.0 10.0 0.00 0.00 0.00 71 1007.8
20260507001657 54 315 5.0 9.0 0.00 0.00 0.00 72 1007.9
20260507000158 54 315 5.0 9.0 0.00 0.00 0.00 73 1008.1
20260506234657 55 292 6.0 10.0 0.00 0.00 0.00 72 1008.0
20260506233158 55 292 6.0 10.0 0.00 0.00 0.00 73 1007.8
20260506231658 55 315 5.0 10.0 0.00 0.00 0.00 72 1008.0
20260506230157 55 292 6.0 13.0 0.00 0.00 0.00 72 1007.9
20260506224657 55 292 6.0 10.0 0.00 0.00 0.00 72 1008.1
20260506223158 55 292 6.0 11.0 0.00 0.00 0.00 72 1008.2
20260506221657 55 315 8.0 12.0 0.00 0.00 0.00 71 1008.2
20260506220157 56 292 9.0 15.0 0.00 0.00 0.00 70 1008.2
20260506214657 56 292 8.0 15.0 0.00 0.00 0.00 69 1008.0
20260506213157 57 338 6.0 13.0 0.00 0.00 0.00 68 1008.1
20260506211657 57 292 6.0 15.0 0.00 0.00 0.00 67 1008.1
20260506210157 58 315 7.0 13.0 0.00 0.00 0.00 65 1008.1
20260506204658 58 315 8.0 11.0 0.00 0.00 0.00 63 1007.9
20260506203157 59 315 4.0 12.0 0.00 0.00 0.00 60 1008.1
20260506201656 61 315 8.0 12.0 0.00 0.00 0.00 53 1007.6
20260506200157 63 292 5.0 6.0 0.00 0.00 0.00 45 1007.3
20260506194656 64 292 1.0 2.0 0.00 0.00 0.00 43 1007.4
20260506193157 64 292 2.0 4.0 0.00 0.00 0.00 42 1007.3
20260506191656 65 270 2.0 4.0 0.00 0.00 0.00 41 1007.3
20260506190156 66 315 1.0 3.0 0.00 0.00 0.00 40 1007.4
20260506184656 65 315 2.0 3.0 0.00 0.00 0.00 40 1007.4
20260506183157 66 270 2.0 4.0 0.00 0.00 0.00 41 1007.3
20260506181657 66 270 2.0 3.0 0.00 0.00 0.00 40 1007.5
20260506180156 66 270 1.0 4.0 0.00 0.00 0.00 39 1007.6
20260506174655 67 315 1.0 3.0 0.00 0.00 0.00 37 1007.7
20260506173156 67 292 2.0 4.0 0.00 0.00 0.00 38 1007.6
20260506171656 67 315 3.0 9.0 0.00 0.00 0.00 38 1008.0
20260506170156 69 360 2.0 6.0 0.00 0.00 0.00 37 1007.8
20260506164655 69 135 2.0 8.0 0.00 0.00 0.00 37 1007.8
20260506163156 69 158 2.0 4.0 0.00 0.00 0.00 36 1007.7
20260506161655 71 180 3.0 4.0 0.00 0.00 0.00 35 1007.9
20260506160155 67 360 2.0 9.0 0.00 0.00 0.00 38 1008.1
20260506154655 68 338 3.0 9.0 0.00 0.00 0.00 38 1008.1
20260506153156 69 68 1.0 8.0 0.00 0.00 0.00 36 1008.3
20260506151656 69 158 2.0 6.0 0.00 0.00 0.00 35 1008.3
20260506150156 70 360 3.0 9.0 0.00 0.00 0.00 36 1008.5
20260506144655 70 315 3.0 10.0 0.00 0.00 0.00 35 1009.0
20260506143156 68 225 1.0 6.0 0.00 0.00 0.00 38 1009.2
20260506141656 67 270 3.0 4.0 0.00 0.00 0.00 39 1009.4
20260506140156 69 292 3.0 8.0 0.00 0.00 0.00 39 1009.5
20260506134654 67 292 1.0 9.0 0.00 0.00 0.00 41 1009.6
20260506133155 68 270 1.0 8.0 0.00 0.00 0.00 41 1009.7
20260506131655 67 248 1.0 6.0 0.00 0.00 0.00 41 1009.6
20260506130155 66 292 2.0 6.0 0.00 0.00 0.00 42 1010.2
20260506124654 68 315 3.0 8.0 0.00 0.00 0.00 41 1010.3
20260506123155 66 68 0.0 8.0 0.00 0.00 0.00 44 1010.4
20260506121654 65 315 2.0 8.0 0.00 0.00 0.00 45 1010.6
20260506120154 66 90 0.0 6.0 0.00 0.00 0.00 43 1010.8
20260506114656 65 112 0.0 6.0 0.00 0.00 0.00 46 1010.8
20260506113155 66 202 3.0 6.0 0.00 0.00 0.00 45 1011.2
20260506111654 65 68 0.0 6.0 0.00 0.00 0.00 46 1011.3
20260506110155 63 248 3.0 10.0 0.00 0.00 0.00 49 1011.1
20260506104653 64 202 0.0 6.0 0.00 0.00 0.00 49 1011.2
20260506103153 63 90 1.0 6.0 0.00 0.00 0.00 50 1011.2
20260506101655 62 315 1.0 6.0 0.00 0.00 0.00 50 1011.3
20260506100154 62 270 0.0 9.0 0.00 0.00 0.00 56 1011.2
20260506094654 61 315 3.0 6.0 0.00 0.00 0.00 58 1011.3
20260506093153 58 292 4.0 9.0 0.00 0.00 0.00 62 1011.2
20260506091654 59 112 1.0 8.0 0.00 0.00 0.00 64 1011.1
20260506090154 57 292 3.0 8.0 0.00 0.00 0.00 65 1011.3
20260506084654 57 315 4.0 10.0 0.00 0.00 0.00 66 1011.2
20260506083154 56 292 2.0 9.0 0.00 0.00 0.00 69 1011.1
20260506081655 55 338 3.0 9.0 0.00 0.00 0.00 71 1011.2
20260506080154 54 315 4.0 11.0 0.00 0.00 0.00 73 1011.3
20260506073154 53 315 3.0 8.0 0.00 0.00 0.00 73 1011.2
20260506071653 53 315 0.0 6.0 0.00 0.00 0.00 79 1011.3
20260506070152 51 292 3.0 6.0 0.00 0.00 0.00 78 1011.3
20260506061653 48 315 3.0 6.0 0.00 0.00 0.00 83 1011.3
20260506060152 48 315 3.0 4.0 0.00 0.00 0.00 84 1011.2
20260506050153 48 292 3.0 6.0 0.00 0.00 0.00 84 1010.5
20260506044653 48 292 3.0 6.0 0.00 0.00 0.00 84 1010.9
20260506043152 48 315 4.0 6.0 0.00 0.00 0.00 84 1010.9
20260506041653 48 315 3.0 6.0 0.00 0.00 0.00 84 1010.9
20260506040152 48 315 2.0 6.0 0.00 0.00 0.00 83 1010.9
20260506034652 48 315 3.0 6.0 0.00 0.00 0.00 83 1011.2
20260506033153 49 315 3.0 6.0 0.00 0.00 0.00 83 1011.0
20260506031652 49 315 3.0 6.0 0.00 0.00 0.00 83 1011.0
20260506030152 49 292 3.0 6.0 0.00 0.00 0.00 83 1011.0
20260506024652 49 292 4.0 6.0 0.00 0.00 0.00 83 1011.1